RYR3PY EPKT-EDDH

Flight info

Callsign RYR3PY
Flight time 1h 9m
Altitude 32000
Route SUDOL L619 NUDRO T710 SUBIX DCT VIBIS L619 BUMIL/N0407F240 M748 RARUP RARUP3P
Aircraft B738/M-SDE2E3FGHIRWXY/LB1

Departure

Time 2026-04-26 18:39
Airport Katowice Wojciech Korfanty International Airport (EPKT)

Arrival

Time 2026-04-26 19:48
Airport Hamburg Helmut Schmidt Airport (EDDH)
Time Latitude Longitude Altitude Speed Heading
2026-04-26 18:02 50.47142 19.07871 991 ft 0 kts 180°
2026-04-26 18:19 50.47144 19.07871 986 ft 2 kts 180°
2026-04-26 18:19 50.47170 19.07870 985 ft 4 kts 175°
2026-04-26 18:19 50.47197 19.07864 986 ft 4 kts 166°
2026-04-26 18:20 50.47221 19.07851 983 ft 4 kts 144°
2026-04-26 18:20 50.47234 19.07824 981 ft 2 kts 91°
2026-04-26 18:20 50.47234 19.07815 981 ft 0 kts 90°
2026-04-26 18:27 50.47234 19.07834 980 ft 4 kts 90°
2026-04-26 18:27 50.47234 19.07878 979 ft 4 kts 90°
2026-04-26 18:27 50.47234 19.07921 982 ft 4 kts 90°
2026-04-26 18:28 50.47234 19.07963 983 ft 4 kts 90°
2026-04-26 18:28 50.47234 19.08007 984 ft 5 kts 90°
2026-04-26 18:28 50.47234 19.08084 981 ft 9 kts 90°
2026-04-26 18:28 50.47235 19.08203 982 ft 13 kts 90°
2026-04-26 18:29 50.47235 19.08355 983 ft 15 kts 90°
2026-04-26 18:29 50.47235 19.08533 984 ft 15 kts 89°
2026-04-26 18:29 50.47235 19.08707 984 ft 17 kts 90°
2026-04-26 18:29 50.47235 19.08879 986 ft 17 kts 90°
2026-04-26 18:30 50.47233 19.09072 987 ft 19 kts 91°
2026-04-26 18:30 50.47231 19.09291 989 ft 21 kts 90°
2026-04-26 18:30 50.47229 19.09531 991 ft 23 kts 90°
2026-04-26 18:30 50.47230 19.09738 992 ft 9 kts 86°
2026-04-26 18:31 50.47231 19.09852 992 ft 12 kts 90°
2026-04-26 18:31 50.47233 19.09999 991 ft 14 kts 78°
2026-04-26 18:31 50.47292 19.10138 992 ft 17 kts 52°
2026-04-26 18:31 50.47353 19.10261 993 ft 0 kts 51°
2026-04-26 18:32 50.47354 19.10263 993 ft 1 kts 51°
2026-04-26 18:32 50.47356 19.10267 993 ft 0 kts 51°
2026-04-26 18:33 50.47360 19.10274 993 ft 3 kts 49°
2026-04-26 18:34 50.47367 19.10288 993 ft 0 kts 50°
2026-04-26 18:34 50.47375 19.10302 1020 ft 3 kts 50°
2026-04-26 18:34 50.47393 19.10339 1020 ft 5 kts 53°
2026-04-26 18:34 50.47404 19.10362 1021 ft 0 kts 53°
2026-04-26 18:36 50.47408 19.10371 1019 ft 3 kts 53°
2026-04-26 18:37 50.47442 19.10431 1019 ft 11 kts 37°
2026-04-26 18:37 50.47537 19.10452 1021 ft 16 kts 356°
2026-04-26 18:37 50.47596 19.10344 1021 ft 0 kts 271°
2026-04-26 18:38 50.47596 19.10342 1021 ft 1 kts 271°
2026-04-26 18:39 50.47598 19.10093 1016 ft 63 kts 271°
2026-04-26 18:39 50.47602 19.08918 1007 ft 148 kts 270°
2026-04-26 18:39 50.47612 19.06996 1420 ft 190 kts 273°
2026-04-26 18:39 50.47647 19.04820 2415 ft 202 kts 275°
2026-04-26 18:40 50.47664 19.02700 3700 ft 196 kts 274°
2026-04-26 18:40 50.47641 19.00554 4654 ft 199 kts 273°
2026-04-26 18:40 50.47628 18.98236 4936 ft 224 kts 273°
2026-04-26 18:40 50.47628 18.95724 5312 ft 234 kts 274°
2026-04-26 18:41 50.47626 18.93137 5805 ft 239 kts 272°
2026-04-26 18:41 50.47596 18.90514 6374 ft 241 kts 272°
2026-04-26 18:41 50.47560 18.87822 6717 ft 255 kts 272°
2026-04-26 18:41 50.47522 18.84972 7192 ft 265 kts 272°
2026-04-26 18:42 50.47482 18.82075 8000 ft 265 kts 273°
2026-04-26 18:42 50.47443 18.79209 8797 ft 267 kts 273°
2026-04-26 18:42 50.47404 18.76286 9567 ft 269 kts 274°
2026-04-26 18:42 50.47363 18.73329 10330 ft 272 kts 274°
2026-04-26 18:43 50.47324 18.70292 10704 ft 289 kts 274°
2026-04-26 18:43 50.47282 18.67013 10876 ft 311 kts 274°
2026-04-26 18:43 50.47233 18.63499 11035 ft 332 kts 274°
2026-04-26 18:43 50.47324 18.59820 11321 ft 341 kts 286°
2026-04-26 18:44 50.48262 18.56460 11943 ft 336 kts 307°
2026-04-26 18:44 50.49845 18.53807 12731 ft 333 kts 323°
2026-04-26 18:44 50.51926 18.52195 13442 ft 337 kts 342°
2026-04-26 18:44 50.54243 18.51715 14146 ft 345 kts 358°
2026-04-26 18:45 50.56644 18.52341 14799 ft 356 kts 13°
2026-04-26 18:45 50.58888 18.54154 15451 ft 368 kts 27°
2026-04-26 18:45 50.61187 18.55800 16054 ft 360 kts
2026-04-26 18:45 50.63641 18.55712 16699 ft 351 kts 342°
2026-04-26 18:46 50.65785 18.53934 17377 ft 351 kts 320°
2026-04-26 18:46 50.67527 18.51215 18035 ft 354 kts 313°
2026-04-26 18:46 50.68848 18.47960 18546 ft 366 kts 293°
2026-04-26 18:46 50.69187 18.43918 19096 ft 382 kts 270°
2026-04-26 18:47 50.68400 18.39846 19717 ft 400 kts 248°
2026-04-26 18:47 50.66638 18.36317 20130 ft 421 kts 231°
2026-04-26 18:47 50.65106 18.32478 19799 ft 420 kts 261°
2026-04-26 18:47 50.64742 18.27985 20465 ft 406 kts 270°
2026-04-26 18:48 50.64729 18.23638 21612 ft 386 kts 280°
2026-04-26 18:48 50.65382 18.19620 22414 ft 377 kts 295°
2026-04-26 18:48 50.66749 18.16103 22854 ft 380 kts 310°
2026-04-26 18:48 50.68785 18.13424 23215 ft 388 kts 328°
2026-04-26 18:49 50.71234 18.11544 23716 ft 392 kts 333°
2026-04-26 18:49 50.73759 18.09865 24106 ft 396 kts 333°
2026-04-26 18:49 50.76304 18.08142 24489 ft 398 kts 332°
2026-04-26 18:49 50.78813 18.06278 24879 ft 398 kts 329°
2026-04-26 18:50 50.81180 18.04019 25262 ft 397 kts 322°
2026-04-26 18:50 50.83332 18.01277 25632 ft 398 kts 315°
2026-04-26 18:50 50.85284 17.98172 25994 ft 399 kts 311°
2026-04-26 18:50 50.87097 17.94836 26353 ft 400 kts 308°
2026-04-26 18:51 50.88828 17.91372 26695 ft 402 kts 307°
2026-04-26 18:51 50.90530 17.87824 27018 ft 405 kts 306°
2026-04-26 18:51 50.92201 17.84285 27342 ft 407 kts 306°
2026-04-26 18:51 50.93902 17.80669 27669 ft 409 kts 306°
2026-04-26 18:52 50.95606 17.77051 27979 ft 411 kts 306°
2026-04-26 18:52 50.96745 17.74636 28176 ft 412 kts 306°
2026-04-26 18:52 50.99052 17.69751 28584 ft 415 kts 306°
2026-04-26 18:52 51.00788 17.66077 28980 ft 414 kts 306°
2026-04-26 18:53 51.02492 17.62475 29456 ft 412 kts 306°
2026-04-26 18:53 51.04208 17.58846 29947 ft 410 kts 306°
2026-04-26 18:53 51.05918 17.55224 30364 ft 409 kts 306°
2026-04-26 18:53 51.07625 17.51603 30694 ft 409 kts 306°
2026-04-26 18:54 51.09327 17.47985 31003 ft 409 kts 306°
2026-04-26 18:54 51.11030 17.44359 31342 ft 408 kts 306°
2026-04-26 18:54 51.12725 17.40747 31694 ft 407 kts 306°
2026-04-26 18:54 51.14418 17.37131 32024 ft 406 kts 306°
2026-04-26 18:55 51.16110 17.33513 32294 ft 407 kts 306°
2026-04-26 18:55 51.17813 17.29866 32275 ft 412 kts 306°
2026-04-26 18:55 51.21211 17.22576 32277 ft 409 kts 306°
2026-04-26 18:56 51.24579 17.15332 32275 ft 405 kts 306°
2026-04-26 18:56 51.27927 17.08106 32279 ft 405 kts 306°
2026-04-26 18:57 51.30708 17.02091 32281 ft 405 kts 306°
2026-04-26 18:57 51.34600 16.93649 32281 ft 405 kts 306°
2026-04-26 18:58 51.37950 16.86360 32282 ft 406 kts 306°
2026-04-26 18:58 51.41298 16.79054 32286 ft 407 kts 305°
2026-04-26 18:59 51.44644 16.71734 32295 ft 408 kts 305°
2026-04-26 18:59 51.47978 16.64418 32288 ft 408 kts 305°
2026-04-26 19:00 51.51334 16.57033 32290 ft 409 kts 305°
2026-04-26 19:00 51.54687 16.49634 32289 ft 409 kts 305°
2026-04-26 19:01 51.58036 16.42223 32292 ft 409 kts 305°
2026-04-26 19:01 51.61359 16.34846 32291 ft 410 kts 305°
2026-04-26 19:02 51.64702 16.27406 32290 ft 410 kts 305°
2026-04-26 19:02 51.67475 16.21217 32289 ft 410 kts 305°
2026-04-26 19:03 51.71375 16.12487 32287 ft 410 kts 305°
2026-04-26 19:03 51.74678 16.05072 32289 ft 408 kts 304°
2026-04-26 19:04 51.77990 15.97616 32298 ft 408 kts 304°
2026-04-26 19:04 51.81299 15.90143 32296 ft 407 kts 304°
2026-04-26 19:05 51.86220 15.78990 32296 ft 407 kts 304°
2026-04-26 19:06 51.89505 15.71519 32300 ft 407 kts 304°
2026-04-26 19:06 51.92766 15.63998 32295 ft 407 kts 301°
2026-04-26 19:07 51.95325 15.55803 32302 ft 407 kts 295°
2026-04-26 19:07 51.97757 15.47473 32299 ft 407 kts 295°
2026-04-26 19:08 51.99774 15.40599 32298 ft 407 kts 295°
2026-04-26 19:08 52.02209 15.32346 32300 ft 408 kts 296°
2026-04-26 19:09 52.04666 15.24028 32300 ft 408 kts 295°
2026-04-26 19:09 52.07510 15.14371 32304 ft 407 kts 295°
2026-04-26 19:10 52.09953 15.06046 32309 ft 407 kts 295°
2026-04-26 19:10 52.12392 14.97706 32304 ft 407 kts 295°
2026-04-26 19:11 52.14815 14.89390 32312 ft 407 kts 295°
2026-04-26 19:11 52.17272 14.80925 32306 ft 407 kts 295°
2026-04-26 19:12 52.19229 14.74164 32306 ft 406 kts 295°
2026-04-26 19:12 52.22039 14.64421 32302 ft 406 kts 295°
2026-04-26 19:13 52.24435 14.56081 32310 ft 405 kts 295°
2026-04-26 19:13 52.26421 14.49147 32302 ft 405 kts 295°
2026-04-26 19:14 52.29190 14.39441 32309 ft 405 kts 295°
2026-04-26 19:14 52.31564 14.31091 32309 ft 405 kts 295°
2026-04-26 19:15 52.33932 14.22731 32305 ft 405 kts 295°
2026-04-26 19:15 52.36295 14.14358 32299 ft 405 kts 295°
2026-04-26 19:16 52.38646 14.05997 32303 ft 404 kts 295°
2026-04-26 19:16 52.40995 13.97617 32299 ft 404 kts 295°
2026-04-26 19:17 52.43319 13.89292 32301 ft 404 kts 295°
2026-04-26 19:17 52.45654 13.80902 32296 ft 404 kts 295°
2026-04-26 19:18 52.47989 13.72478 32300 ft 405 kts 295°
2026-04-26 19:18 52.50313 13.64064 32294 ft 405 kts 295°
2026-04-26 19:19 52.52632 13.55640 32298 ft 405 kts 295°
2026-04-26 19:19 52.54950 13.47186 32295 ft 405 kts 295°
2026-04-26 19:20 52.57245 13.38785 32297 ft 405 kts 295°
2026-04-26 19:20 52.59552 13.30311 32303 ft 406 kts 295°
2026-04-26 19:21 52.61471 13.23238 32297 ft 406 kts 295°
2026-04-26 19:21 52.63769 13.14741 32300 ft 406 kts 295°
2026-04-26 19:22 52.66069 13.06202 32300 ft 406 kts 295°
2026-04-26 19:22 52.68351 12.97698 32297 ft 406 kts 295°
2026-04-26 19:23 52.70633 12.89164 32299 ft 407 kts 295°
2026-04-26 19:23 52.72937 12.80518 32297 ft 407 kts 295°
2026-04-26 19:24 52.75172 12.72095 32297 ft 407 kts 295°
2026-04-26 19:24 52.78569 12.59235 32297 ft 407 kts 295°
2026-04-26 19:25 52.80446 12.52100 32301 ft 407 kts 295°
2026-04-26 19:25 52.83063 12.42095 32292 ft 407 kts 295°
2026-04-26 19:26 52.85329 12.33421 32298 ft 407 kts 295°
2026-04-26 19:26 52.87552 12.24873 32283 ft 407 kts 295°
2026-04-26 19:27 52.88667 12.20577 31730 ft 413 kts 295°
2026-04-26 19:27 52.89810 12.16159 31557 ft 408 kts 295°
2026-04-26 19:27 52.90984 12.11607 31152 ft 414 kts 295°
2026-04-26 19:27 52.92050 12.07472 30683 ft 413 kts 295°
2026-04-26 19:28 52.93167 12.03128 30139 ft 410 kts 295°
2026-04-26 19:28 52.94274 11.98810 29542 ft 404 kts 295°
2026-04-26 19:28 52.95364 11.94553 28958 ft 398 kts 295°
2026-04-26 19:28 52.96434 11.90366 28378 ft 390 kts 295°
2026-04-26 19:29 52.97486 11.86242 27823 ft 388 kts 295°
2026-04-26 19:29 52.98542 11.82101 27279 ft 389 kts 295°
2026-04-26 19:29 52.99592 11.77978 26744 ft 388 kts 295°
2026-04-26 19:29 53.00741 11.73957 26199 ft 383 kts 302°
2026-04-26 19:30 53.02231 11.70326 25689 ft 380 kts 309°
2026-04-26 19:30 53.03995 11.67098 25180 ft 377 kts 315°
2026-04-26 19:30 53.05863 11.64066 24688 ft 375 kts 315°
2026-04-26 19:30 53.07123 11.62034 24461 ft 374 kts 315°
2026-04-26 19:31 53.09593 11.58046 24335 ft 373 kts 315°
2026-04-26 19:31 53.11506 11.54943 24290 ft 372 kts 315°
2026-04-26 19:31 53.13298 11.52021 24290 ft 370 kts 315°
2026-04-26 19:31 53.15133 11.49019 24284 ft 371 kts 315°
2026-04-26 19:32 53.17012 11.45939 24283 ft 371 kts 315°
2026-04-26 19:32 53.18814 11.42976 24071 ft 373 kts 315°
2026-04-26 19:32 53.20665 11.39929 23393 ft 374 kts 314°
2026-04-26 19:32 53.22548 11.36821 22836 ft 384 kts 314°
2026-04-26 19:33 53.24445 11.33687 22272 ft 384 kts 314°
2026-04-26 19:33 53.26338 11.30557 21713 ft 380 kts 314°
2026-04-26 19:33 53.28273 11.27353 21100 ft 378 kts 314°
2026-04-26 19:33 53.30056 11.24396 20550 ft 376 kts 314°
2026-04-26 19:34 53.31936 11.21275 19976 ft 374 kts 314°
2026-04-26 19:34 53.33750 11.18259 19420 ft 371 kts 314°
2026-04-26 19:34 53.35660 11.15080 18848 ft 369 kts 314°
2026-04-26 19:34 53.37388 11.12200 18298 ft 366 kts 314°
2026-04-26 19:35 53.39192 11.09189 17677 ft 363 kts 314°
2026-04-26 19:35 53.40969 11.06219 17080 ft 360 kts 315°
2026-04-26 19:35 53.42740 11.03257 16480 ft 357 kts 315°
2026-04-26 19:35 53.44549 11.00225 15879 ft 354 kts 315°
2026-04-26 19:36 53.46204 10.97450 15337 ft 351 kts 315°
2026-04-26 19:36 53.47366 10.95498 14960 ft 349 kts 315°
2026-04-26 19:36 53.49659 10.91643 14216 ft 346 kts 315°
2026-04-26 19:36 53.51322 10.88844 13626 ft 343 kts 315°
2026-04-26 19:37 53.53010 10.86000 13028 ft 341 kts 315°
2026-04-26 19:37 53.54674 10.83191 12435 ft 338 kts 315°
2026-04-26 19:37 53.56337 10.80382 11848 ft 336 kts 315°
2026-04-26 19:37 53.57974 10.77613 11275 ft 334 kts 315°
2026-04-26 19:38 53.59584 10.74888 10724 ft 332 kts 315°
2026-04-26 19:38 53.61207 10.72136 10171 ft 329 kts 315°
2026-04-26 19:38 53.62957 10.69166 9501 ft 324 kts 315°
2026-04-26 19:38 53.64392 10.66729 8955 ft 320 kts 315°
2026-04-26 19:39 53.65935 10.64105 8348 ft 311 kts 315°
2026-04-26 19:39 53.67449 10.61525 7775 ft 304 kts 314°
2026-04-26 19:39 53.68939 10.58986 7267 ft 295 kts 314°
2026-04-26 19:39 53.70375 10.56536 6767 ft 288 kts 314°
2026-04-26 19:40 53.71730 10.54221 6323 ft 280 kts 314°
2026-04-26 19:40 53.73093 10.51890 5920 ft 280 kts 313°
2026-04-26 19:40 53.73465 10.51255 5811 ft 278 kts 313°
2026-04-26 19:40 53.74809 10.48956 5383 ft 271 kts 313°
2026-04-26 19:41 53.76121 10.46709 4967 ft 265 kts 313°
2026-04-26 19:41 53.77423 10.44535 4539 ft 261 kts 314°
2026-04-26 19:41 53.78716 10.42408 4130 ft 256 kts 314°
2026-04-26 19:41 53.79553 10.41036 3938 ft 250 kts 313°
2026-04-26 19:42 53.80497 10.37675 3488 ft 236 kts 267°
2026-04-26 19:42 53.80046 10.35095 3211 ft 231 kts 243°
2026-04-26 19:42 53.79284 10.32731 3046 ft 225 kts 239°
2026-04-26 19:42 53.78475 10.30501 3039 ft 226 kts 238°
2026-04-26 19:43 53.77575 10.28318 3009 ft 224 kts 233°
2026-04-26 19:43 53.76616 10.26284 2993 ft 220 kts 231°
2026-04-26 19:43 53.75657 10.24342 2977 ft 206 kts 231°
2026-04-26 19:43 53.74776 10.22568 2970 ft 188 kts 231°
2026-04-26 19:44 53.73984 10.20972 2971 ft 171 kts 231°
2026-04-26 19:44 53.73226 10.19442 2982 ft 170 kts 231°
2026-04-26 19:44 53.72459 10.17892 2837 ft 174 kts 231°
2026-04-26 19:44 53.71681 10.16319 2597 ft 174 kts 231°
2026-04-26 19:45 53.70908 10.14758 2362 ft 172 kts 231°
2026-04-26 19:45 53.70152 10.13229 2122 ft 166 kts 231°
2026-04-26 19:45 53.69418 10.11745 1889 ft 165 kts 232°
2026-04-26 19:45 53.68677 10.10246 1682 ft 163 kts 232°
2026-04-26 19:46 53.67990 10.08858 1474 ft 145 kts 232°
2026-04-26 19:46 53.67360 10.07582 1253 ft 141 kts 233°
2026-04-26 19:46 53.66772 10.06391 1077 ft 139 kts 233°
2026-04-26 19:46 53.66148 10.05127 869 ft 140 kts 233°
2026-04-26 19:47 53.65531 10.03870 737 ft 140 kts 233°
2026-04-26 19:47 53.65121 10.03028 647 ft 140 kts 232°
2026-04-26 19:47 53.64282 10.01345 293 ft 139 kts 233°
2026-04-26 19:47 53.63667 10.00089 84 ft 136 kts 232°
2026-04-26 19:48 53.63118 9.98973 45 ft 108 kts 230°
2026-04-26 19:48 53.62712 9.98163 41 ft 73 kts 230°
2026-04-26 19:48 53.62455 9.97633 39 ft 51 kts 231°
2026-04-26 19:48 53.62298 9.97374 39 ft 28 kts 195°
2026-04-26 19:49 53.62159 9.97416 44 ft 13 kts 115°
2026-04-26 19:49 53.62160 9.97515 46 ft 9 kts 75°
2026-04-26 19:49 53.62218 9.97667 46 ft 20 kts 51°
2026-04-26 19:49 53.62321 9.97868 46 ft 26 kts 49°
2026-04-26 19:50 53.62423 9.98075 46 ft 21 kts 54°
2026-04-26 19:50 53.62477 9.98343 46 ft 27 kts 77°
2026-04-26 19:50 53.62514 9.98668 46 ft 28 kts 79°
2026-04-26 19:50 53.62551 9.98985 44 ft 27 kts 78°
2026-04-26 19:51 53.62584 9.99281 46 ft 25 kts 79°
2026-04-26 19:51 53.62615 9.99554 46 ft 23 kts 79°
2026-04-26 19:51 53.62641 9.99785 44 ft 23 kts 79°